TimeEDT,TemperatureF,Dew PointF,Humidity,Sea Level PressureIn,VisibilityMPH,Wind Direction,Wind SpeedMPH,Gust SpeedMPH,PrecipitationIn,Events,Conditions,WindDirDegrees,DateUTC
12:26 AM,69.8,64.4,83,30.02,10.0,North,6.9,-,N/A,,Overcast,350,2013-09-28 04:26:00
12:53 AM,69.1,64.9,87,30.00,10.0,North,5.8,-,N/A,,Overcast,350,2013-09-28 04:53:00
1:15 AM,69.8,64.4,83,30.01,10.0,North,4.6,-,N/A,,Scattered Clouds,350,2013-09-28 05:15:00
1:53 AM,68.0,64.9,90,30.00,10.0,North,3.5,-,N/A,,Clear,10,2013-09-28 05:53:00
2:53 AM,68.0,64.9,90,29.99,10.0,North,4.6,-,N/A,,Clear,360,2013-09-28 06:53:00
3:53 AM,69.1,66.0,90,29.98,10.0,NNE,8.1,-,N/A,,Partly Cloudy,20,2013-09-28 07:53:00
4:53 AM,70.0,66.9,90,29.98,10.0,NNE,5.8,-,N/A,,Overcast,20,2013-09-28 08:53:00
5:53 AM,70.0,68.0,93,29.99,10.0,NNE,6.9,-,N/A,,Scattered Clouds,20,2013-09-28 09:53:00
6:02 AM,69.8,68.0,94,30.00,10.0,NNE,6.9,-,N/A,,Partly Cloudy,20,2013-09-28 10:02:00
6:30 AM,71.6,68.0,88,30.01,10.0,NNE,9.2,-,N/A,,Overcast,20,2013-09-28 10:30:00
6:53 AM,71.1,68.0,90,30.01,10.0,NNE,6.9,-,N/A,,Overcast,20,2013-09-28 10:53:00
7:08 AM,71.6,68.0,88,30.02,10.0,NNE,8.1,-,N/A,,Overcast,20,2013-09-28 11:08:00
7:19 AM,71.6,68.0,88,30.02,10.0,NNE,5.8,-,N/A,,Overcast,20,2013-09-28 11:19:00
7:53 AM,71.1,68.0,90,30.03,10.0,NNE,6.9,-,N/A,,Overcast,20,2013-09-28 11:53:00
8:39 AM,71.6,68.0,88,30.05,10.0,ENE,6.9,-,N/A,,Overcast,60,2013-09-28 12:39:00
8:53 AM,72.0,68.0,87,30.05,10.0,ENE,6.9,-,N/A,,Overcast,60,2013-09-28 12:53:00
9:19 AM,71.6,69.8,94,30.06,2.0,NE,9.2,-,0.01,Rain,Light Rain,40,2013-09-28 13:19:00
9:23 AM,71.6,69.8,94,30.06,1.8,NNE,5.8,-,0.01,Rain,Rain,30,2013-09-28 13:23:00
9:35 AM,71.6,69.8,94,30.07,2.0,NE,6.9,-,0.03,Rain,Light Rain,40,2013-09-28 13:35:00
9:37 AM,71.6,69.8,94,30.07,1.8,NE,8.1,-,0.03,Rain,Light Rain,40,2013-09-28 13:37:00
9:53 AM,71.1,68.0,90,30.07,1.0,NE,9.2,-,0.07,Rain,Heavy Rain,40,2013-09-28 13:53:00
10:01 AM,71.6,69.8,94,30.07,1.2,NNE,6.9,-,0.04,Rain,Rain,20,2013-09-28 14:01:00
10:08 AM,71.6,69.8,94,30.08,2.0,NNE,10.4,-,0.04,Rain,Light Rain,30,2013-09-28 14:08:00
10:17 AM,71.6,69.8,94,30.08,1.8,NE,6.9,-,0.05,Rain,Light Rain,40,2013-09-28 14:17:00
10:32 AM,71.6,69.8,94,30.08,2.5,NE,6.9,-,0.06,Rain,Light Rain,50,2013-09-28 14:32:00
10:40 AM,71.6,69.8,94,30.08,5.0,NE,6.9,-,0.06,Rain,Light Rain,40,2013-09-28 14:40:00
10:53 AM,72.0,69.1,91,30.08,3.0,NNE,6.9,-,0.06,Rain,Light Rain,20,2013-09-28 14:53:00
11:08 AM,71.6,69.8,94,30.08,4.0,North,8.1,-,0.01,Rain,Light Rain,10,2013-09-28 15:08:00
11:53 AM,73.9,69.1,85,30.08,10.0,Variable,6.9,-,0.01,,Overcast,0,2013-09-28 15:53:00
12:53 PM,73.9,69.1,85,30.08,5.0,NE,10.4,-,0.00,Rain,Light Rain,50,2013-09-28 16:53:00
1:13 PM,75.2,69.8,83,30.07,5.0,NE,6.9,-,0.00,Rain,Light Rain,40,2013-09-28 17:13:00
1:21 PM,75.2,69.8,83,30.07,6.0,NE,8.1,-,0.00,,Haze,40,2013-09-28 17:21:00
1:30 PM,75.2,69.8,83,30.07,10.0,NNE,6.9,-,0.00,,Overcast,30,2013-09-28 17:30:00
1:53 PM,75.9,68.0,76,30.06,10.0,NNE,13.8,-,0.00,,Overcast,20,2013-09-28 17:53:00
2:53 PM,77.0,66.9,71,30.03,10.0,NE,12.7,-,N/A,,Overcast,40,2013-09-28 18:53:00
3:53 PM,78.1,68.0,71,30.02,10.0,NNE,12.7,-,N/A,,Overcast,30,2013-09-28 19:53:00
4:22 PM,77.0,66.2,69,30.03,10.0,NE,13.8,-,N/A,,Overcast,40,2013-09-28 20:22:00
4:53 PM,75.0,66.0,73,30.03,10.0,ENE,11.5,-,N/A,,Overcast,60,2013-09-28 20:53:00
5:53 PM,75.0,66.9,76,30.03,10.0,NE,6.9,-,N/A,,Overcast,50,2013-09-28 21:53:00
6:53 PM,73.9,66.0,76,30.03,10.0,NE,11.5,18.4,N/A,,Overcast,50,2013-09-28 22:53:00
7:53 PM,73.0,64.0,73,30.04,10.0,NE,8.1,-,N/A,,Overcast,40,2013-09-28 23:53:00
8:53 PM,72.0,63.0,73,30.04,10.0,NNE,6.9,-,N/A,,Overcast,30,2013-09-29 00:53:00
9:53 PM,71.1,64.0,78,30.05,10.0,NNE,4.6,-,N/A,,Overcast,30,2013-09-29 01:53:00
10:53 PM,71.1,64.0,78,30.04,10.0,NE,5.8,-,N/A,,Overcast,40,2013-09-29 02:53:00
11:53 PM,70.0,64.9,84,30.04,10.0,North,3.5,-,N/A,,Mostly Cloudy,360,2013-09-29 03:53:00